STARLINK-36461, 67316

Orbit data source: Space-Track

STARLINK-36461, 67316 is a payload satellite owned by SpaceX/Seattle (US) in LEO that was launched on Sun, 04 Jan 2026 UTC via an FALCON 9 launch vehicle from the Air Force Eastern Test Range (AFETR). Payload-class satellites include a variety of spacecraft equipped with specific instruments for various scientific and technological missions. These include communications satellites like Starlink; space stations such as the ISS; scientific satellites like the Hubble; Earth observation satellites from companies like Planet Labs, Umbra, and HawkEye 360; GPS; miniature CubeSats for education and research; and military/defense satellites.

Loading next visibility...
Identifier
67316, 2026-002M
Orbit
LEO
Country
Flag of USUS
Related business
Manufacturer
SpaceX/Seattle
Mission
Operational Commercial Communications
Bus & Motor
STARLINK V2MO, Unknown motor
Mass
575 kg wet, ~530 kg dry
Launch date (UTC)
2026-01-04 (2 months ago)
Launch vehicle
FALCON 9
Launch site
Air Force Eastern Test Range (AFETR)
Object type
Payload
Rocket body
Debris
Shape & HBR
Box + 2 Pan, 17.7 m
Radar Cross Section
36.964 m²

Expand to show TLE details & history
Last TLE update: 1 day ago

TLE from 1 day ago
0 STARLINK-36461
1 67316U 26002M   26062.16113132  .00024779  00000-0  90615-3 0  9990
2 67316  43.0036   1.8614 0001273 275.6680  84.4026 15.27609296 10246
Epoch: 2026-03-03T03:52Z
TLE epoch observation values (Epoch: 2026-03-03T03:52:01.746Z)
Latitude
-0.00004°
Longitude
142.90992°
Altitude
482.652 km
Speed
7.626 km/s
True Right ascension
00h 07m 26s
True Declination
0° 00' 00"
Sunlit
Object was in daylight at epoch
Visualization orbit readout
Latitude
Unknown
Longitude
Unknown
Altitude
Unknown
Speed
Unknown
Apparent Right ascension
Unknown
Apparent Declination
Unknown
Sunlit
N/A
Visualization observer readout
Local Sidereal Time
07:40:32
Azimuth
Unknown
Elevation
Unknown
Doppler factor
Unknown
Orbital elements
Apogee altitude
485.78 km
Perigee altitude
484.032 km
Semi-major axis
6,863.043 km
Eccentricity
0.00013
Inclination
43.0036°
RAAN
1.8614°
Arg. of periapsis
275.668°
True anomaly
84.41712°
Mean anomaly
84.4026°
Eccentric anomaly
84.40986°
Mean motion
3.8174 °/min
Orbital period
94.3 mins
BSTAR
0.00090615
Loading maneuver chart data...
Computing Atmospheric mass density...
Loading historical data...
Loading historical data...
Loading historical data...
Loading historical data...
Loading historical data...
Loading historical data...
Loading historical data...

Documentation

Showing up to 5 results
|